カタログに戻る

STARLINK-6286

運用中通信VLEO
NORAD 56558·PAYLOAD·🇺🇸 United States

打ち上げ May 14, 2023 から Cape Canaveral Space Force Station

Loading…

次のパス (今後24時間)

TLE

最新Source: CelesTrak SupGP

元期: Sep 15, 2026, 02:06 UTC

1 56558C 23065BH  26258.08798611 -.00025403  00000+0 -92025-3 0  2582
2 56558  43.0022 237.3902 0001309 269.2379 239.8224 15.27586410    19

AllMySatでSTARLINK-6286をリアルタイム追跡

Download on the App Store